This demonstration page uses our WeatherBlox Daily Observations layout. Learn more.

Left ArrowRight Arrow

Hourly Observations for March 14, 2021

Temp ( °F °C ) Dew Point ( °F °C ) Humidity (%) Winds ( mph kmh ) Pressure ( in mb ) Visibility ( mi km ) Precip ( " mm )
12:15 am 00:15 Cloudy with Rain 43 6.1 42 5.6 97 97 ENE 24 39 30.03 1017 4 6 0.12 3.05
12:35 am 00:35 Cloudy with Rain 43 6.2 42 5.7 97 97 ENE 24 39 30.01 1016 5 8 0.20 5.08
12:55 am 00:55 Cloudy with Rain 43 6.3 42 5.8 97 97 E 20 31 30.02 1016 7 11 0.25 6.35
1:15 am 01:15 Cloudy with Rain 43 6.3 42 5.8 97 97 E 26 43 30.02 1016 5 8 0.06 1.52
1:35 am 01:35 Cloudy with Light Rain 43 6.1 42 5.6 97 97 ENE 25 41 29.98 1015 5 8 0.13 3.30
1:55 am 01:55 Cloudy with Light Rain 43 6 42 5.5 97 97 E 26 43 30.00 1016 10 16 0.13 3.30
3:15 am 03:15 Cloudy with Rain 42 5.8 42 5.3 97 97 E 36 57 29.92 1013 4 6 0.05 1.27
3:35 am 03:35 Cloudy with Light Rain 42 5.6 41 5.1 97 97 E 25 41 29.95 1014 10 16 0.07 1.78
3:55 am 03:55 Cloudy with Drizzle 42 5.5 41 5 97 97 E 23 37 29.96 1015 10 16 0.07 1.78
4:15 am 04:15 Cloudy with Light Rain 42 5.5 41 5 97 97 ENE 24 39 29.94 1014 7 11 0.01 0.25
4:35 am 04:35 Cloudy with Rain 42 5.5 41 5 97 97 ENE 25 41 29.91 1013 4 6 0.06 1.52
4:55 am 04:55 Cloudy with Rain 42 5.5 41 5 97 97 ENE 28 44 29.90 1013 5 8 0.10 2.54
5:15 am 05:15 Cloudy with Light Rain 41 5.2 41 4.8 97 97 ENE 26 43 29.90 1012 4 6 0.06 1.52
5:35 am 05:35 Cloudy with Rain 41 5 40 4.6 97 97 ENE 31 50 29.90 1012 2 3 0.15 3.81
5:55 am 05:55 Cloudy with Light Rain 41 5 40 4.6 97 97 ENE 30 48 29.89 1012 5 8 0.18 4.57
6:15 am 06:15 Cloudy with Light Rain 41 5.1 40 4.7 97 97 ENE 32 52 29.87 1011 4 6 0.01 0.25
6:35 am 06:35 Cloudy with Rain 41 5 40 4.5 97 97 ENE 36 57 29.87 1011 5 8 0.05 1.27
6:55 am 06:55 Cloudy with Light Rain 41 4.8 40 4.5 98 98 ENE 37 59 29.86 1011 4 6 0.05 1.27
7:15 am 07:15 Cloudy with Rain 41 4.8 40 4.5 98 98 ENE 37 59 29.85 1011 4 6 0.02 0.51
7:35 am 07:35 Cloudy with Light Rain 41 4.8 40 4.5 98 98 ENE 33 54 29.83 1010 4 6 0.02 0.51
7:55 am 07:55 Cloudy with Light Rain 41 4.8 40 4.5 98 98 ENE 33 54 29.82 1010 3 5 0.03 0.76
8:15 am 08:15 Cloudy with Light Rain 41 4.8 40 4.5 98 98 ENE 36 57 29.80 1009 3 5 0.02 0.51
8:35 am 08:35 Cloudy with Light Rain 41 4.8 40 4.5 98 98 E 41 67 29.81 1009 4 6 0.02 0.51
8:55 am 08:55 Cloudy with Rain 41 4.8 40 4.4 97 97 E 38 61 29.81 1009 4 6 0.03 0.76
9:15 am 09:15 Cloudy with Light Rain 40 4.6 40 4.2 97 97 ENE 38 61 29.80 1009 4 6 0.01 0.25
9:35 am 09:35 Cloudy with Rain 40 4.6 40 4.2 97 97 E 36 57 29.79 1009 1 2 0.11 2.79
9:55 am 09:55 Cloudy with Drizzle 40 4.7 40 4.3 97 97 E 32 52 29.79 1009 7 11 0.13 3.30
10:15 am 10:15 Cloudy with Light Rain 41 4.8 40 4.5 98 98 E 38 61 29.79 1009 4 6 0.02 0.51
10:35 am 10:35 Cloudy with Light Rain 41 4.8 40 4.5 98 98 E 32 52 29.80 1009 3 4 0.02 0.51
10:55 am 10:55 Cloudy with Light Rain 41 5 40 4.5 97 97 E 30 48 29.80 1009 3 4 0.04 1.02
11:15 am 11:15 Cloudy with Light Rain 41 5.1 40 4.7 97 97 E 37 59 29.80 1009 4 6 0.01 0.25
11:35 am 11:35 Cloudy with Light Rain 41 5.1 40 4.7 97 97 E 31 50 29.81 1009 3 5 0.02 0.51
11:55 am 11:55 Cloudy with Rain 41 5.1 40 4.7 97 97 E 32 52 29.83 1010 5 8 0.03 0.76
12:15 pm 12:15 Cloudy with Light Rain 41 5 40 4.6 97 97 E 31 50 29.83 1010 3 5 0.03 0.76
12:35 pm 12:35 Cloudy with Light Rain 41 5 40 4.6 97 97 E 26 43 29.85 1011 7 11 0.03 0.76
12:55 pm 12:55 Cloudy with Light Rain 41 5.2 41 4.8 97 97 E 26 43 29.84 1010 3 5 0.04 1.02
1:15 pm 13:15 Cloudy 42 5.3 41 5 98 98 E 25 41 29.81 1010 7 11 N/A
1:35 pm 13:35 Cloudy 42 5.5 41 5 97 97 E 28 44 29.82 1010 10 16 N/A
1:55 pm 13:55 Cloudy 42 5.5 41 5.1 97 97 E 28 44 29.82 1010 10 16 N/A
2:15 pm 14:15 Cloudy 42 5.5 41 5.1 97 97 E 26 43 29.80 1009 10 16 N/A
2:35 pm 14:35 Cloudy 42 5.8 42 5.5 98 98 E 28 44 29.80 1009 10 16 N/A
2:55 pm 14:55 Cloudy 42 5.6 41 5.2 97 97 E 24 39 29.80 1009 10 16 N/A
3:15 pm 15:15 Cloudy 42 5.8 42 5.5 98 98 E 30 48 29.79 1009 7 11 N/A
3:35 pm 15:35 Cloudy with Mist and Fog 43 5.9 42 5.5 97 97 E 30 48 29.78 1008 3 5 N/A
3:55 pm 15:55 Cloudy with Mist and Fog 43 6 42 5.6 97 97 E 30 48 29.78 1008 4 6 N/A
4:15 pm 16:15 Cloudy with Mist and Fog 42 5.8 42 5.5 98 98 E 30 48 29.78 1008 3 4 N/A
4:35 pm 16:35 Cloudy with Mist and Fog 42 5.6 42 5.3 98 98 E 29 46 29.79 1009 3 4 N/A
4:55 pm 16:55 Cloudy with Mist and Fog 42 5.5 41 5.1 97 97 E 25 41 29.80 1009 2 3 N/A
5:15 pm 17:15 Cloudy with Mist and Fog 42 5.3 41 5 98 98 E 29 46 29.80 1009 3 4 N/A
5:35 pm 17:35 Cloudy with Mist and Fog 42 5.5 41 5.1 97 97 E 23 37 29.80 1009 3 5 N/A
5:55 pm 17:55 Cloudy with Mist and Fog 42 5.4 41 5.1 98 98 E 28 44 29.80 1009 2 2 N/A
6:15 pm 18:15 Cloudy with Mist and Fog 42 5.3 41 5 98 98 E 24 39 29.80 1009 5 8 N/A
6:35 pm 18:35 Cloudy with Mist and Fog 41 5.2 41 5 99 99 E 24 39 29.81 1009 3 5 N/A
6:55 pm 18:55 Cloudy with Mist and Fog 41 5.1 41 4.8 98 98 E 21 33 29.82 1010 1 2 N/A
7:15 pm 19:15 Cloudy with Mist and Fog 41 5 40 4.7 98 98 E 21 33 29.82 1010 1 1 N/A
7:35 pm 19:35 Cloudy with Mist and Fog 41 5 40 4.6 97 97 E 18 30 29.83 1010 1 1 N/A
7:55 pm 19:55 Windy with Snow Likely 41 5 40 4.6 97 97 E 22 35 29.83 1010 1 2 N/A
8:15 pm 20:15 Cloudy with Light Rain 41 4.8 40 4.5 98 98 E 17 28 29.84 1010 2 3 N/A
8:35 pm 20:35 Cloudy with Light Rain 41 4.8 40 4.5 98 98 E 16 26 29.84 1010 2 3 N/A
8:55 pm 20:55 Cloudy with Light Rain 41 4.8 40 4.5 98 98 E 21 33 29.84 1010 2 2 N/A
9:15 pm 21:15 Cloudy with Light Rain 41 4.8 40 4.5 98 98 E 16 26 29.85 1011 2 3 N/A
9:35 pm 21:35 Cloudy with Mist and Fog 40 4.7 40 4.5 99 99 E 20 31 29.84 1011 2 3 N/A
9:55 pm 21:55 Cloudy with Light Rain 40 4.6 40 4.3 98 98 ENE 18 30 29.84 1011 2 3 N/A
10:15 pm 22:15 Cloudy with Nearby Thunderstorms 40 4.5 40 4.2 98 98 ENE 17 28 29.85 1011 3 4 N/A
10:35 pm 22:35 Cloudy with Mist and Fog 40 4.5 39 4.1 97 97 ENE 17 28 29.86 1011 3 4 N/A
10:55 pm 22:55 Cloudy with Light Rain 40 4.5 40 4.2 98 98 E 16 26 29.86 1011 2 2 N/A
11:15 pm 23:15 Cloudy with Mist and Fog 40 4.5 40 4.2 98 98 E 16 26 29.86 1011 2 3 N/A
11:35 pm 23:35 Cloudy with Mist and Fog 40 4.5 39 4.1 97 97 E 15 24 29.86 1011 2 3 N/A
11:55 pm 23:55 Cloudy with Light Rain 40 4.4 39 4.1 98 98 E 14 22 29.86 1011 2 3 N/A

Powered by AerisWeather